Regional Weather Roundup
Issued by NWS

Home | Current Version | Previous Version | Text Only | Print | Product List | Glossary On
Versions: 1 2 3 4 5 6 7 8 9 10 11 12 13 14 15 16 17 18 19 20 21 22 23 24 25 26 27 28 29 30 31 32 33 34 35 36 37 38 39 40 41 42 43 44 45 46 47 48 49 50
000
ASUS43 KLSX 190907
RWRMO

WEATHER SUMMARY FOR MISSOURI
NATIONAL WEATHER SERVICE SPRINGFIELD MO
400 AM CDT SAT APR 19 2014

NOTE: "FAIR" INDICATES FEW OR NO CLOUDS BELOW 12,000 FEET WITH NO
       SIGNIFICANT WEATHER AND/OR OBSTRUCTIONS TO VISIBILITY.
       CURRENT SKY AND/OR WEATHER CONDITIONS ARE NOT AVAILABLE FOR
       CHILLICOTHE AND FARMINGTON.

MOZ001>031-035>038-043-044-053-054-191000-
...NORTHERN AND WESTERN MISSOURI...

CITY           SKY/WX    TMP DP  RH WIND       PRES   REMARKS
KANSAS CTY INT FAIR      54  39  57 SE10      30.14S
KANSAS C DTWN  CLEAR     60  39  45 SE9       30.14S
LEE`S SUMMIT   CLEAR     55  39  54 SE8       30.15F
ST JOSEPH      CLEAR     51  39  63 S3        30.14S
CHILLICOTHE      N/A     52  39  61 SE5       30.18F
KIRKSVILLE     CLEAR     45  33  63 SE7       30.21F

$$
MOZ066>068-077>081-088>096-101>105-191000-
...SOUTHWEST MISSOURI...

CITY           SKY/WX    TMP DP  RH WIND       PRES   REMARKS
SPRINGFIELD    CLEAR     53  41  63 SE9       30.18S
JOPLIN         CLEAR     53  41  63 S9        30.17S

$$
MOZ032>034-039>042-045>050-055>058-069>072-191000-
...CENTRAL MISSOURI...

CITY           SKY/WX    TMP DP  RH WIND       PRES   REMARKS
COLUMBIA       CLEAR     52  39  61 SE7       30.22S
JEFFERSON CITY CLEAR     45  39  79 SE8       30.22S
ROLLA          CLEAR     51  41  68 SE9       30.21F
SEDALIA        CLEAR     52  41  66 SE8       30.19S
WHITEMAN AFB   CLEAR     53  39  60 SE7       30.16F
OSAGE BEACH    CLEAR     54  37  54 SE3       30.22S

$$
MOZ051-052-059>065-191000-
...EAST CENTRAL MISSOURI...

CITY           SKY/WX    TMP DP  RH WIND       PRES   REMARKS
ST LOUIS INTL  PTCLDY    53  40  61 CALM      30.24F
SPIRIT OF STL  CLEAR     41  39  93 CALM      30.24S
ST CHARLES     PTCLDY    50  39  66 NE7       30.24S

$$
MOZ072>076-082>087-097>100-106>115-191000-
...SOUTH CENTRAL AND SOUTHEAST MISSOURI...

CITY           SKY/WX    TMP DP  RH WIND       PRES   REMARKS
CAPE GIRARDEAU CLEAR     48  44  86 CALM      30.22R
FARMINGTON     CLEAR     45  39  81 CALM      30.26S
POPLAR BLUFF   CLEAR     49  42  77 NW3       30.20S
WEST PLAINS    CLEAR     45  40  82 NE5       30.22F

$$



USA.gov is the U.S. government's official web portal to all federal, state and local government web resources and services.